Powrót do katalogu

LEMUR 2 KARENDARRELL

AktywnyPogodaSSO
NORAD 64841·PAYLOAD·🇺🇸 United States

Wystrzelony Jun 23, 2025 z Vandenberg Space Force Base

Loading…

Następne Przeloty (najbliższe 24 godziny)

TLE

ŚwieżeSource: Space-Track

Epoka: Sep 14, 2026, 14:22 UTC

1 64841U 25135BU  26257.59914243  .00006352  00000-0  49889-3 0  9995
2 64841  97.7863  13.8136 0010244 269.4198  90.5852 15.01221190 67427

Śledź LEMUR 2 KARENDARRELL w czasie rzeczywistym z AllMySat

Download on the App Store